CW3518 Weather Reports


time (UTC)temp
F
wind
direction
speed
knots
gust
knots
rain 1hr
in
rain 24hr
in
rain mn
in
humidity
%
barometer
mb
20260503195001 80 220 14.8 21.7 0.00 0.00 0.00 31 1017.8
20260503194033 79 224 11.3 20.0 0.00 0.00 0.00 32 1018.1
20260503193502 79 239 17.4 20.0 0.00 0.00 0.00 36 1018.1
20260503193001 79 200 13.0 18.2 0.00 0.00 0.00 33 1018.2
20260503192502 79 247 9.6 17.4 0.00 0.00 0.00 38 1018.3
20260503191002 79 226 11.3 18.2 0.00 0.00 0.00 37 1018.5
20260503190501 79 233 13.0 20.0 0.00 0.00 0.00 37 1018.6
20260503190002 79 222 15.6 20.0 0.00 0.00 0.00 34 1018.6
20260503184502 79 252 13.0 17.4 0.00 0.00 0.00 38 1018.8
20260503184001 78 229 13.0 17.4 0.00 0.00 0.00 37 1018.9
20260503183001 78 232 13.0 16.5 0.00 0.00 0.00 37 1019.1
20260503182502 78 218 13.9 18.2 0.00 0.00 0.00 36 1019.1
20260503181502 78 250 9.6 18.2 0.00 0.00 0.00 40 1019.3
20260503180501 78 270 11.3 17.4 0.00 0.00 0.00 42 1019.4
20260503175532 78 230 13.9 18.2 0.00 0.00 0.00 41 1019.6
20260503175001 77 237 10.4 18.2 0.00 0.00 0.00 42 1019.7
20260503174501 77 248 13.0 16.5 0.00 0.00 0.00 42 1019.8
20260503174002 77 259 10.4 14.8 0.00 0.00 0.00 41 1019.9
20260503173502 77 238 11.3 15.6 0.00 0.00 0.00 40 1020.0
20260503173001 77 267 13.0 17.4 0.00 0.00 0.00 41 1020.0
20260503172502 77 237 13.9 17.4 0.00 0.00 0.00 41 1020.0
20260503172001 77 264 10.4 17.4 0.00 0.00 0.00 42 1020.1
20260503171502 77 221 11.3 16.5 0.00 0.00 0.00 42 1020.1
20260503171001 77 217 15.6 16.5 0.00 0.00 0.00 41 1020.3
20260503170501 77 260 13.0 13.9 0.00 0.00 0.00 41 1020.4
20260503150531 71 242 13.9 18.2 0.00 0.00 0.00 49 1020.7
20260503130501 58 219 6.1 7.8 0.00 0.00 0.00 75 1020.6
20260503110502 54 223 6.1 7.0 0.00 0.00 0.00 77 1019.7
20260503090502 57 228 5.2 6.1 0.00 0.00 0.00 73 1019.7
20260503081502 57 236 6.1 7.8 0.00 0.00 0.00 74 1019.6
20260503081002 57 236 7.0 7.8 0.00 0.00 0.00 74 1019.6
20260503080502 57 232 6.1 7.0 0.00 0.00 0.00 76 1019.6
20260503072502 57 233 7.0 7.8 0.00 0.00 0.00 75 1019.9
20260503072002 57 235 7.0 7.8 0.00 0.00 0.00 75 1019.9
20260503071502 57 228 7.0 7.8 0.00 0.00 0.00 74 1019.9
20260503071002 57 227 7.0 7.8 0.00 0.00 0.00 74 1019.9
20260503070502 58 228 7.0 7.8 0.00 0.00 0.00 73 1019.9
20260503054502 60 232 7.0 7.0 0.00 0.00 0.00 67 1019.8
20260503054002 60 231 6.1 6.1 0.00 0.00 0.00 66 1019.8
20260503053502 61 225 6.1 6.1 0.00 0.00 0.00 65 1019.7
20260503053002 61 225 6.1 6.1 0.00 0.00 0.00 65 1019.7
20260503052502 61 228 6.1 6.1 0.00 0.00 0.00 65 1019.7
20260503052002 61 231 6.1 6.1 0.00 0.00 0.00 66 1019.6
20260503051002 61 232 6.1 6.1 0.00 0.00 0.00 65 1019.6
20260503050503 61 232 6.1 6.1 0.00 0.00 0.00 64 1019.6
20260503050002 61 235 6.1 6.1 0.00 0.00 0.00 64 1019.6
20260503045502 61 233 6.1 6.1 0.00 0.00 0.00 64 1019.6
20260503045002 61 229 6.1 6.1 0.00 0.00 0.00 64 1019.6
20260503044532 61 230 6.1 6.1 0.00 0.00 0.00 64 1019.6
20260503043502 62 231 6.1 7.0 0.00 0.00 0.00 64 1019.6
20260503043002 62 229 6.1 7.0 0.00 0.00 0.00 64 1019.6
20260503042534 62 228 6.1 7.0 0.00 0.00 0.00 63 1019.6
20260503042032 62 229 6.1 7.0 0.00 0.00 0.00 63 1019.6
20260503040532 63 229 6.1 7.0 0.00 0.00 0.00 62 1019.6
20260503040002 63 225 6.1 6.1 0.00 0.00 0.00 61 1019.6
20260503035502 63 223 6.1 7.0 0.00 0.00 0.00 61 1019.6
20260503035002 63 223 6.1 7.0 0.00 0.00 0.00 61 1019.6
20260503034502 64 230 6.1 6.1 0.00 0.00 0.00 61 1019.6
20260503034002 64 228 5.2 6.1 0.00 0.00 0.00 61 1019.6
20260503033502 64 223 6.1 6.1 0.00 0.00 0.00 61 1019.6
20260503033002 64 225 6.1 6.1 0.00 0.00 0.00 60 1019.6
20260503032502 64 221 5.2 6.1 0.00 0.00 0.00 60 1019.6
20260503032002 64 226 6.1 6.1 0.00 0.00 0.00 60 1019.6
20260503031502 64 229 5.2 6.1 0.00 0.00 0.00 59 1019.5
20260503030502 65 229 5.2 6.1 0.00 0.00 0.00 58 1019.4
20260503030002 66 218 5.2 5.2 0.00 0.00 0.00 57 1019.3
20260503025502 66 226 5.2 5.2 0.00 0.00 0.00 57 1019.3
20260503025032 66 232 5.2 5.2 0.00 0.00 0.00 56 1019.3
20260503024503 66 217 5.2 5.2 0.00 0.00 0.00 56 1019.2
20260503024002 66 217 5.2 5.2 0.00 0.00 0.00 55 1019.2
20260503022002 67 216 4.3 4.3 0.00 0.00 0.00 54 1019.0
20260503021502 67 225 4.3 4.3 0.00 0.00 0.00 54 1019.0
20260503021002 67 228 4.3 4.3 0.00 0.00 0.00 54 1019.0
20260503020502 68 231 4.3 4.3 0.00 0.00 0.00 54 1019.0
20260503020002 68 216 4.3 4.3 0.00 0.00 0.00 53 1018.9
20260503015002 68 220 4.3 4.3 0.00 0.00 0.00 52 1018.9
20260503014502 68 227 4.3 4.3 0.00 0.00 0.00 52 1018.9
20260503014002 69 225 4.3 4.3 0.00 0.00 0.00 52 1018.9
20260503013502 69 228 4.3 4.3 0.00 0.00 0.00 52 1018.8
20260503012002 70 236 2.6 3.5 0.00 0.00 0.00 50 1018.7
20260503011502 70 232 2.6 3.5 0.00 0.00 0.00 49 1018.7
20260503011003 71 225 3.5 3.5 0.00 0.00 0.00 48 1018.6
20260503005502 72 183 2.6 3.5 0.00 0.00 0.00 48 1018.6
20260503005002 72 233 2.6 4.3 0.00 0.00 0.00 47 1018.5
20260503004502 73 218 3.5 4.3 0.00 0.00 0.00 45 1018.5
20260503004034 73 235 2.6 4.3 0.00 0.00 0.00 44 1018.5
20260503003502 73 226 2.6 4.3 0.00 0.00 0.00 44 1018.5
20260503003002 73 228 3.5 5.2 0.00 0.00 0.00 43 1018.5
20260503002502 73 226 4.3 6.1 0.00 0.00 0.00 43 1018.5
20260503002002 74 248 4.3 7.0 0.00 0.00 0.00 42 1018.5
20260503001002 74 271 6.1 7.0 0.00 0.00 0.00 38 1018.4
20260503000502 74 269 6.1 7.0 0.00 0.00 0.00 38 1018.4
20260503000002 74 253 5.2 7.8 0.00 0.00 0.00 39 1018.4
20260502235502 74 253 6.1 7.8 0.00 0.00 0.00 40 1018.5
20260502235002 74 272 7.8 8.7 0.00 0.00 0.00 37 1018.5
20260502234502 74 248 5.2 10.4 0.00 0.00 0.00 38 1018.5
20260502234002 74 230 10.4 12.2 0.00 0.00 0.00 38 1018.5
20260502233502 75 256 8.7 12.2 0.00 0.00 0.00 37 1018.5
20260502233002 75 296 10.4 10.4 0.00 0.00 0.00 38 1018.5
20260502232502 75 256 7.0 14.8 0.00 0.00 0.00 36 1018.6
20260502232002 75 277 6.1 14.8 0.00 0.00 0.00 36 1018.6
20260502231503 75 297 11.3 13.0 0.00 0.00 0.00 37 1018.6
20260502231002 75 273 7.0 10.4 0.00 0.00 0.00 37 1018.6
20260502230503 75 292 5.2 11.3 0.00 0.00 0.00 36 1018.6
20260502230032 74 273 4.3 11.3 0.00 0.00 0.00 37 1018.7
20260502225502 75 246 6.1 11.3 0.00 0.00 0.00 36 1018.7
20260502225002 75 277 9.6 11.3 0.00 0.00 0.00 36 1018.7
20260502224502 75 262 7.8 11.3 0.00 0.00 0.00 36 1018.7
20260502224002 75 292 7.0 12.2 0.00 0.00 0.00 37 1018.8
20260502223502 75 298 10.4 12.2 0.00 0.00 0.00 37 1018.8
20260502223002 75 275 7.8 13.0 0.00 0.00 0.00 37 1018.8
20260502222502 75 324 4.3 13.0 0.00 0.00 0.00 35 1018.9
20260502222002 74 356 2.6 13.0 0.00 0.00 0.00 36 1019.0
20260502221503 74 301 8.7 13.0 0.00 0.00 0.00 37 1019.0
20260502221003 74 275 7.0 8.7 0.00 0.00 0.00 38 1019.0
20260502220532 74 322 2.6 7.8 0.00 0.00 0.00 37 1019.0
20260502220002 75 271 7.0 7.8 0.00 0.00 0.00 37 1019.1
20260502215502 74 310 7.0 8.7 0.00 0.00 0.00 38 1019.2
20260502215002 73 306 7.0 12.2 0.00 0.00 0.00 38 1019.2
20260502214502 74 317 7.0 13.0 0.00 0.00 0.00 38 1019.2
20260502214002 75 290 8.7 13.9 0.00 0.00 0.00 38 1019.2
20260502213503 75 279 13.0 13.9 0.00 0.00 0.00 38 1019.2
20260502212502 74 301 5.2 11.3 0.00 0.00 0.00 38 1019.4
20260502212002 75 283 4.3 11.3 0.00 0.00 0.00 39 1019.5
20260502211502 75 292 8.7 12.2 0.00 0.00 0.00 38 1019.5
20260502211002 75 267 7.0 13.9 0.00 0.00 0.00 39 1019.5
20260502210502 74 278 9.6 13.9 0.00 0.00 0.00 38 1019.6
20260502205003 74 262 4.3 11.3 0.00 0.00 0.00 38 1019.7
20260502204504 75 264 7.0 9.6 0.00 0.00 0.00 39 1019.8
20260502204002 75 275 9.6 9.6 0.00 0.00 0.00 38 1019.9
20260502203032 73 314 7.8 7.8 0.00 0.00 0.00 37 1020.1
20260502202502 73 137 2.6 7.8 0.00 0.00 0.00 39 1020.2
20260502202032 73 263 3.5 7.0 0.00 0.00 0.00 41 1020.3
20260502201532 73 259 4.3 12.2 0.00 0.00 0.00 41 1020.4
20260502201002 73 293 11.3 12.2 0.00 0.00 0.00 39 1020.4
20260502200003 73 358 2.6 9.6 0.00 0.00 0.00 40 1020.4
20260502195502 73 272 4.3 7.8 0.00 0.00 0.00 40 1020.4